Location: Waco, TX
(31.5480°N, 97.1670°W)
Time: 16:28:22
(UTC-06:00)

ISS - Pass Details

Date: 15 November 2017
Orbit: 402 x 407 km, 51.6° (Epoch: 24 November)

Event Time Altitude Azimuth Distance (km) Brightness Sun altitude
Rises 05:36:18 0° 335° (NNW) 2,313 - -17.3°
Exits shadow 05:38:41 - 357° (N) 1,625 -0.9 -16.8°
Reaches altitude 10° 05:39:39 10° 12° (NNE) 1,451 -1.0 -16.6°
Maximum altitude 05:40:44 11° 32° (NNE) 1,376 -0.9 -16.3°
Drops below altitude 10° 05:41:50 10° 51° (NE) 1,450 -0.5 -16.1°
Sets 05:45:09 0° 88° (E) 2,306 1.6 -15.4°
